Location: Ehrke Reservoir
(40.0279°N, 99.6641°W)
Time: 22:38:02
(UTC+00:00)

Okean-O - Pass Details

Date: 20 January 2020
Orbit: 639 x 640 km, 98.2° (Epoch: 16 February)

Event Time Altitude Azimuth Distance (km) Brightness Sun altitude
Rises 00:46:22 0° 172° (S) 2,929 6.1 -12.3°
Reaches altitude 10° 00:48:34 10° 175° (S) 2,025 5.3 -12.7°
Maximum altitude 00:52:57 66° 258° (WSW) 699 3.1 -13.5°
Drops below altitude 10° 00:57:23 10° 341° (NNW) 2,040 5.3 -14.3°
Sets 00:59:36 0° 345° (NNW) 2,953 6.1 -14.8°
